Regional Weather Roundup
Issued by NWS

Home | Current Version | Previous Version | Text Only | Print | Product List | Glossary Off
Versions: 1 2 3 4 5 6 7 8 9 10 11 12 13 14 15 16 17 18 19 20 21 22 23 24 25 26 27 28 29 30 31 32 33 34 35 36 37 38 39 40 41 42 43 44 45 46 47 48 49 50

000
ASUS43 KLMK 301002
RWRKY
KENTUCKY REGIONAL WEATHER ROUNDUP
NATIONAL WEATHER SERVICE LOUISVILLE KY
600 AM EDT SAT MAY 30 2015

NOTE "FAIR" INDICATES FEW OR NO CLOUDS BELOW 12,000 FEET
WITH NO SIGNIFICANT WEATHER AND/OR OBSTRUCTIONS TO VISIBILITY.

KYZ001>023-026-027-061>063-070>075-301100-
WESTERN AND SOUTH CENTRAL KENTUCKY

CITY           SKY/WX    TMP DP  RH WIND       PRES   REMARKS
PADUCAH        MOCLDY    73  67  81 S6        29.97S
HENDERSON      PTCLDY    70  64  83 S6        29.99F
OWENSBORO      PTCLDY    69  67  93 S6        30.03S
HOPKINSVILLE   PTCLDY    69  65  86 SE5       30.03S
BOWLING GREEN  CLEAR     71  64  78 S6        30.07R
GLASGOW        NOT AVBL
$$

KYZ024-025-028>034-038-045-046-053-301100-
NORTH CENTRAL KENTUCKY

CITY           SKY/WX    TMP DP  RH WIND       PRES   REMARKS
LOUISVILLE/SDF PTCLDY    72  65  78 S8        30.05S
LOUISVILLE/LOU MOCLDY    70  66  87 SE5       30.06S
FORT KNOX      CLEAR     66  64  93 S5        30.05S
$$

KYZ035>037-039>044-047>052-055>060-089>105-301100-
NORTHEAST KENTUCKY

CITY           SKY/WX    TMP DP  RH WIND       PRES   REMARKS
LEXINGTON      CLOUDY    69  64  84 S7        30.10R
COVINGTON      MOCLDY    68  65  90 S7        30.07R
FRANKFORT      PTCLDY    69  63  81 S5        30.08R
$$

KYZ054-064>069-076>088-106>120-301100-
SOUTHEAST KENTUCKY

CITY           SKY/WX    TMP DP  RH WIND       PRES   REMARKS
JACKSON        PTCLDY    67  62  84 S3        30.15R
LONDON         CLOUDY    68  62  81 CALM      30.14R
SOMERSET       NOT AVBL
MIDDLESBORO    CLOUDY    64  64 100 CALM      30.17S
MONTICELLO     CLOUDY    71  66  84 S3        30.15R
$$



USA.gov is the U.S. government's official web portal to all federal, state and local government web resources and services.